User: anonymous   Login
Location: ???? ?????????
(31.1304°N, 31.7111°E)
Time: 06:00:22
(UTC+00:00)
Language:

Cosmos 2297 Rocket - Orbit

View from above orbital plane
View from above orbital plane
View from above satellite
View from above satellite

Ground track
Ground track

The orbit data is extracted from the following two-line orbital elements,

1 23405U 94077B   21015.60012541 -.00000011  00000-0  18948-4 0  9996
2 23405  70.9835 344.3990 0002164 195.8737 164.2318 14.15231315350361
Epoch (UTC): 15 January 2021 14:24:10
Eccentricity: 0.0002164
inclination: 70.9835°
perigee height: 840 km
apogee height: 843 km
right ascension of ascending node: 344.3990°
argument of perigee: 195.8737°
revolutions per day: 14.15231315
mean anomaly at epoch: 164.2318°
orbit number at epoch: 35036

The dashed part of the orbit path shows where the satellite is in the earth's shadow,  

DLR